Lid_Strength_Index
4 3 3 3 3 3 3 4 4 4 4 5 5 4 3 4 4 7 11 10 11 16 15 10 12 13 13 12 15 14 14 14 13 17 18 19 19 15 16 15 15 18 19 17 16 19 21 16 12 13 15 14 14 13
4 3 3 3 3 3 4 4 4 4 4 5 5 5 4 4 4 6 11 9 9 14 14 9 9 9 10 10 13 12 13 12 12 16 17 15 16 15 15 16 12 15 14 16 14 17 15 15 15 14 14 14 14 13
4 4 3 4 4 4 4 4 4 4 4 5 6 5 4 3 4 7 12 11 12 18 15 14 16 10 8 9 9 13 12 11 12 11 14 15 16 14 16 15 15 13 13 17 16 16 16 15 14 15 15 14 14 14
4 4 4 4 4 4 4 4 4 4 4 6 6 5 4 4 5 7 11 11 12 15 22 18 12 12 10 10 9 10 11 10 11 11 14 15 15 12 15 14 15 14 14 15 17 16 15 15 15 15 15 15 15 15
4 4 3 4 4 4 4 4 4 5 6 6 6 5 5 5 6 10 12 12 13 15 21 21 15 15 13 12 12 11 11 12 12 14 15 15 13 14 14 14 17 15 16 16 16 15 15 15 15 15 15 15 15 14
4 4 4 4 4 4 4 5 5 6 6 7 7 6 6 6 8 12 17 12 12 14 20 23 19 21 22 17 14 14 13 13 13 14 15 14 13 14 16 18 14 15 14 15 15 15 14 15 15 16 15 15 15 15
4 4 4 4 4 4 5 5 6 6 7 7 7 7 6 6 12 17 16 13 11 12 20 22 23 19 22 20 13 14 13 15 15 15 16 17 15 16 17 20 16 17 17 17 18 17 15 16 16 18 18 20 21 22
4 4 4 4 4 5 6 6 6 7 8 7 8 7 7 7 10 15 13 10 12 16 19 26 23 21 19 16 20 16 18 15 19 18 20 24 21 21 22 18 16 17 17 19 19 19 18 19 19 19 20 20 19 19
4 4 4 4 5 6 6 6 6 7 7 8 8 8 12 15 18 13 10 11 14 17 23 28 26 25 18 17 18 18 23 21 24 29 29 26 28 24 21 19 18 19 20 20 21 22 20 20 21 21 22 21 22 21
4 4 4 4 5 6 6 6 6 7 8 8 14 19 19 15 11 12 18 21 21 23 24 26 25 23 19 21 26 26 28 28 25 27 29 29 27 24 22 23 23 22 22 24 21 20 22 22 24 24 24 26 26 26
5 5 5 5 6 6 6 6 7 7 9 17 21 22 15 13 18 24 25 23 27 25 29 26 27 23 21 24 22 23 27 31 27 25 26 31 25 21 25 28 30 29 28 27 27 26 28 26 26 26 26 29 30 29
5 5 5 6 6 6 6 6 7 13 15 15 18 19 23 24 25 24 29 29 28 24 28 26 25 23 25 23 25 27 28 28 25 33 28 27 22 25 29 29 29 32 32 28 30 27 28 25 29 28 29 28 30 31
5 5 5 6 6 6 6 7 8 10 14 19 22 25 24 27 26 25 27 26 28 29 27 26 26 25 25 23 29 28 27 26 32 28 27 24 24 27 30 33 30 33 33 30 29 30 29 29 30 30 28 31 31 29
5 5 6 6 6 6 6 8 9 12 17 21 23 24 25 28 27 24 25 25 24 27 28 27 24 26 30 26 30 26 31 32 30 27 25 26 27 29 31 34 32 30 32 28 29 30 28 28 28 28 29 31 30 27
5 6 6 6 6 6 7 9 11 17 20 23 24 24 29 27 30 32 32 29 28 27 25 26 27 23 31 28 30 31 28 28 28 25 26 26 29 32 30 31 32 30 29 29 30 28 27 27 27 27 27 28 27 28
5 6 7 6 6 7 8 11 15 20 24 24 28 28 31 25 28 32 31 27 28 25 27 26 30 28 29 29 27 27 26 26 23 28 27 30 30 31 31 32 31 31 29 28 27 27 27 27 29 31 32 29 29 31
7 11 7 7 7 8 9 14 18 23 21 24 25 31 27 25 25 28 29 26 24 22 25 29 25 25 28 29 27 29 25 25 28 29 32 31 29 28 30 29 28 27 26 27 27 28 30 32 32 29 29 30 31 31
10 7 7 8 9 10 14 19 23 23 24 24 26 28 31 29 29 30 31 29 24 24 24 22 24 27 26 25 26 26 30 31 33 31 30 30 31 30 29 27 27 27 27 28 29 32 32 31 29 30 32 31 32 31
8 8 8 9 10 14 16 19 21 25 23 30 31 31 31 31 30 30 31 30 29 28 24 26 24 22 22 25 25 29 29 28 26 27 28 31 30 29 28 27 27 28 28 31 30 31 31 32 31 30 30 30 31 31
7 8 8 9 12 16 19 22 23 24 26 27 31 31 31 30 31 33 32 31 29 28 26 25 24 25 24 26 27 27 27 26 22 26 28 27 28 28 27 27 27 29 29 31 30 29 29 29 29 29 30 31 31 30
9 9 9 13 18 19 21 23 26 27 26 28 33 31 31 31 30 29 29 32 28 28 26 28 30 32 32 32 31 31 28 27 25 24 24 27 27 27 26 27 27 28 29 29 31 31 30 31 31 30 31 31 30 31
10 9 13 15 20 23 24 27 25 27 27 30 30 32 32 30 31 30 32 29 30 31 31 31 33 32 31 30 30 29 30 28 28 25 24 25 27 27 28 27 27 29 30 31 31 32 31 31 30 31 31 31 30 30
9 11 15 18 21 23 25 27 26 29 28 28 31 29 30 31 32 31 28 32 33 33 33 33 34 33 30 31 28 27 27 26 27 27 27 27 27 27 28 29 29 29 30 31 31 31 32 31 31 31 31 32 32 32
11 15 19 22 23 25 28 29 30 30 31 29 30 30 31 32 32 31 28 34 34 34 34 33 30 31 30 29 29 29 28 27 27 27 26 26 27 28 29 30 30 31 31 31 32 34 33 33 32 33 33 35 33 33
15 18 19 25 27 25 26 29 31 29 30 33 30 30 30 33 30 32 29 34 35 36 34 31 29 28 28 29 29 30 29 27 27 28 28 26 28 28 30 30 31 32 32 35 35 35 35 35 34 34 35 37 35 35
20 20 23 25 26 24 25 26 27 28 30 31 31 33 34 31 29 26 31 37 38 36 35 32 29 29 29 27 28 29 30 29 27 29 29 28 28 28 30 30 32 32 34 35 37 37 37 37 37 37 36 36 35 37
23 25 26 28 25 24 24 28 30 28 29 28 29 31 29 28 25 31 36 36 38 38 36 35 34 30 29 30 30 30 29 28 28 29 29 30 30 31 31 32 33 34 35 36 37 38 39 39 38 37 37 38 40 40
26 28 24 26 26 25 24 30 28 26 29 32 27 27 25 23 27 37 38 35 38 37 38 39 37 35 33 32 31 30 30 29 29 30 31 31 32 32 34 35 35 29 34 36 36 35 37 36 37 39 40 40 40 39
28 29 25 29 29 29 31 29 31 37 37 37 29 32 35 39 40 41 38 38 37 39 39 38 38 37 35 34 34 33 31 29 31 32 31 32 33 33 35 37 37 35 35 35 31 28 31 34 36 39 40 40 39 40
29 32 29 33 31 31 33 34 37 39 38 40 39 38 40 41 41 41 41 40 38 40 40 39 37 34 35 35 36 36 36 36 34 31 32 33 33 35 35 34 33 33 33 35 35 36 30 36 36 39 39 40 38 36
35 32 33 35 37 35 34 34 34 35 37 39 41 39 42 42 41 41 41 41 40 40 39 38 38 36 35 35 36 35 35 36 36 36 35 35 34 34 33 32 32 34 35 35 35 36 36 36 39 40 39 38 38 37
33 34 32 36 37 33 32 31 31 33 35 36 38 40 39 39 40 41 40 40 40 40 37 37 36 36 37 37 37 37 34 35 34 33 33 32 31 31 31 31 32 32 32 33 33 34 36 39 39 39 39 38 38 37
32 32 33 33 34 34 32 31 31 33 33 35 37 37 37 36 35 37 39 40 38 38 37 36 37 36 36 34 34 34 34 34 33 27 28 27 28 29 31 31 32 32 32 33 34 35 37 39 39 41 39 38 37 36